This is the latest recevied weather packets stored in our database for station/object 5B4APJ-13. If no packets are shown the sender has not sent any weather packets the latest 10 day(s).
| Time | Temp. | Humidity | Pressure | Rain* | Wind** | Luminosity | Snow |
|---|---|---|---|---|---|---|---|
| 1777838827 | 12.22° C | 66% | 1009.6 hPa | 0 mm | 0.89 m/s, 218° | 0 W/m² | - |
| 1777838525 | 12.22° C | 65% | 1009.4 hPa | 0 mm | 2.68 m/s, 218° | 0 W/m² | - |
| 1777838225 | 12.22° C | 65% | 1009.5 hPa | 0 mm | 4.02 m/s, 226° | 0 W/m² | - |
| 1777837926 | 12.22° C | 66% | 1009.2 hPa | 0 mm | 2.24 m/s, 242° | 0 W/m² | - |
| 1777837626 | 12.22° C | 66% | 1009.4 hPa | 0 mm | 2.68 m/s, 234° | 0 W/m² | - |
| 1777837326 | 12.22° C | 66% | 1009.3 hPa | 0 mm | 2.68 m/s, 266° | 0 W/m² | - |
| 1777837026 | 11.67° C | 67% | 1009.4 hPa | 0 mm | 2.68 m/s, 228° | 0 W/m² | - |
| 1777836726 | 11.67° C | 67% | 1009.6 hPa | 0 mm | 1.79 m/s, 245° | 0 W/m² | - |
| 1777836426 | 11.67° C | 67% | 1009.5 hPa | 0 mm | 1.34 m/s, 252° | 0 W/m² | - |
| 1777836126 | 11.67° C | 67% | 1009.7 hPa | 0 mm | 0.89 m/s, 179° | 0 W/m² | - |
| 1777835826 | 11.67° C | 67% | 1009.6 hPa | 0 mm | 0.45 m/s, 250° | 0 W/m² | - |
| 1777835526 | 11.67° C | 67% | 1009.5 hPa | 0 mm | 1.34 m/s, 254° | 0 W/m² | - |
| 1777835226 | 11.67° C | 67% | 1009.4 hPa | 0 mm | 0.45 m/s, 224° | 0 W/m² | - |
| 1777834927 | 11.67° C | 66% | 1009.5 hPa | 0 mm | 0.45 m/s, 182° | 0 W/m² | - |
| 1777834626 | 11.67° C | 67% | 1009.5 hPa | 0 mm | 1.34 m/s, 215° | 0 W/m² | - |
| 1777834326 | 11.67° C | 67% | 1009.4 hPa | 0 mm | 1.34 m/s, 217° | 0 W/m² | - |
| 1777834025 | 11.67° C | 67% | 1009.2 hPa | 0 mm | 2.68 m/s, 254° | 0 W/m² | - |
| 1777833726 | 11.67° C | 67% | 1009.5 hPa | 0 mm | 2.68 m/s, 179° | 0 W/m² | - |
| 1777833425 | 12.22° C | 66% | 1009.5 hPa | 0 mm | 0.89 m/s, 235° | 0 W/m² | - |
| 1777833126 | 12.22° C | 66% | 1009.1 hPa | 0 mm | 2.68 m/s, 262° | 0 W/m² | - |
| 1777832826 | 12.22° C | 66% | 1009.5 hPa | 0 mm | 1.34 m/s, 243° | 0 W/m² | - |
| 1777832526 | 12.22° C | 66% | 1009.3 hPa | 0 mm | 1.79 m/s, 201° | 0 W/m² | - |
| 1777832227 | 12.22° C | 66% | 1009.3 hPa | 0 mm | 1.34 m/s, 175° | 0 W/m² | - |
| 1777831926 | 12.22° C | 66% | 1009.3 hPa | 0 mm | 1.79 m/s, 248° | 0 W/m² | - |
| 1777831626 | 12.22° C | 65% | 1009.1 hPa | 0 mm | 0.45 m/s, 137° | 0 W/m² | - |
* Rain latest hour (hover to see other rain measurements)
** Current wind speed in m/s (hover to see current wind gust speed)